[[{"header":{"parameterUnit":"m.s-1","parameterCategory":1,"la1":30.2992,"la2":30.254,"lo1":-89.0895,"lo2":-89.0443,"dy":0.0025,"dx":0.0025,"nx":19,"ny":19,"refTime":"2026-05-12T21:00:00:Z","depth":0,"parameterNumber":2,"parameterNumberName":"U-component_of_WINDS"},"data":[0,0,0,1.5271,1.5275,1.5472,1.5473,1.5712,1.5714,0,0,0,0,0,0,0,0,0,0,0,1.5202,1.5203,1.527,1.5275,1.5472,1.5473,1.5711,1.5714,0,0,0,0,0,0,0,0,0,0,0,1.5201,1.5203,1.5204,1.5276,1.5472,1.5473,1.5711,1.5567,0,0,0,0,0,0,0,0,0,0,1.5378,1.5304,1.5202,1.5204,1.5277,1.5471,1.5473,1.5561,1.5576,1.5616,0,1.5646,0,1.5683,1.5728,1.5729,0,0,0,1.5283,1.529,1.5353,1.5204,1.5278,1.5471,1.5385,1.557,1.5587,1.5636,1.565,1.5659,1.5687,1.573,1.5731,1.5928,1.5929,0,0,1.5272,1.5232,1.5341,1.5364,1.533,1.5379,1.5391,1.558,1.5593,1.5651,1.5665,1.5691,1.5731,1.5733,1.5928,1.5928,0,0,0,1.5236,1.5224,1.5282,1.5354,1.539,1.5384,1.5399,1.5585,1.5607,1.5668,1.5694,1.5733,1.5735,1.5927,1.5928,1.5914,0,0,0,1.5229,1.5202,1.5277,1.5254,1.5386,1.5489,1.5398,1.5594,1.5616,1.5693,1.5733,1.5738,1.5927,1.5927,1.5914,1.5915,0,0,0,1.5193,1.5198,1.5223,1.5251,1.5335,1.5487,1.5521,1.56,1.5632,1.5729,1.5738,1.5926,1.5927,1.5913,1.5914,1.5956,0,0,0,1.5142,1.5207,1.5222,1.5306,1.5333,1.5476,1.552,1.563,1.5711,1.5734,1.5927,1.5928,1.5913,1.5913,1.5955,1.5984,1.5992,0,0,1.5202,1.5213,1.5266,1.5285,1.5416,1.545,1.558,1.5694,1.5741,1.5864,1.5869,1.5914,1.5914,1.5956,1.6051,1.6057,0,0,0,1.5272,1.5309,1.5353,1.5428,1.5516,1.5594,1.5692,1.5735,1.5841,1.5795,1.5942,1.5943,1.5969,1.5985,1.599,1.6017,1.5933,1.5933,1.5933,1.5298,1.5355,1.5448,1.5529,1.5602,1.5704,1.577,1.5845,1.5881,1.5915,1.5951,1.6002,1.6019,1.6024,1.605,1.5971,1.5971,1.5971,1.5971,1.5393,1.5456,1.5503,1.561,1.5671,1.5763,1.5865,1.5888,1.5983,1.5979,1.6005,1.5995,1.6028,1.6055,1.5971,1.5971,1.5971,1.5971,1.5971,1.5417,1.5457,1.5508,1.5625,1.571,1.5791,1.5881,1.5934,1.5984,1.601,1.6056,1.6056,1.6064,1.6028,1.6028,1.6028,1.6029,1.6029,1.6029,1.5421,1.5479,1.5548,1.5649,1.5706,1.5788,1.5894,1.5952,1.6031,1.6062,1.6063,1.6097,1.602,1.6,1.6032,1.6031,1.6031,1.6031,1.6031,1.5496,1.5488,1.5593,1.5651,1.5776,1.5858,1.5925,1.604,1.6097,1.614,1.617,1.6104,1.612,1.6116,1.61,1.6156,1.6156,1.6156,1.6156,1.5517,1.553,1.5651,1.574,1.5833,1.5905,1.6026,1.611,1.6196,1.6236,1.6236,1.6219,1.6213,1.6232,1.6226,1.6212,1.6295,1.6295,1.6295,1.5567,1.5592,1.5683,1.5766,1.5869,1.5957,1.6074,1.6176,1.6272,1.6302,1.6268,1.6262,1.6236,1.6224,1.6251,1.624,1.6216,0,0]},{"header":{"parameterUnit":"m.s-1","parameterCategory":1,"la1":30.2992,"la2":30.254,"lo1":-89.0895,"lo2":-89.0443,"dy":0.0025,"dx":0.0025,"nx":19,"ny":19,"refTime":"2026-05-12T21:00:00:Z","depth":0,"parameterNumber":3,"parameterNumberName":"V-component_of_WINDS"},"data":[0,0,0,-3.357,-3.3568,-3.3494,-3.3494,-3.3398,-3.3398,0,0,0,0,0,0,0,0,0,0,0,-3.3592,-3.3591,-3.357,-3.3568,-3.3494,-3.3494,-3.3399,-3.3398,0,0,0,0,0,0,0,0,0,0,0,-3.3592,-3.3591,-3.359,-3.3568,-3.3494,-3.3494,-3.3399,-3.3455,0,0,0,0,0,0,0,0,0,0,-3.3527,-3.3547,-3.3591,-3.359,-3.3567,-3.3494,-3.3494,-3.3457,-3.3451,-3.3432,0,-3.3416,0,-3.3406,-3.3391,-3.3391,0,0,0,-3.3567,-3.3552,-3.3533,-3.359,-3.3567,-3.3494,-3.3527,-3.3454,-3.3447,-3.3424,-3.3414,-3.3411,-3.3404,-3.3391,-3.339,-3.329,-3.3289,0,0,-3.3571,-3.3577,-3.3537,-3.3528,-3.354,-3.3529,-3.3525,-3.345,-3.3439,-3.3414,-3.3409,-3.3402,-3.339,-3.3389,-3.329,-3.329,0,0,0,-3.3584,-3.358,-3.3563,-3.3532,-3.3519,-3.3527,-3.3522,-3.3442,-3.3436,-3.3408,-3.3401,-3.339,-3.3388,-3.3291,-3.329,-3.3277,0,0,0,-3.3586,-3.3587,-3.3565,-3.3567,-3.352,-3.3479,-3.3516,-3.3441,-3.3433,-3.3402,-3.3389,-3.3387,-3.3291,-3.329,-3.3278,-3.3269,0,0,0,-3.3596,-3.3589,-3.3578,-3.3568,-3.3537,-3.3481,-3.347,-3.3439,-3.3429,-3.3391,-3.3387,-3.3291,-3.329,-3.328,-3.3271,-3.3247,0,0,0,-3.3608,-3.3563,-3.3578,-3.3526,-3.3537,-3.3474,-3.3471,-3.3422,-3.3388,-3.3389,-3.3291,-3.329,-3.328,-3.3272,-3.3248,-3.3228,-3.322,0,0,-3.3555,-3.3557,-3.3526,-3.3538,-3.3474,-3.3485,-3.3419,-3.3379,-3.3368,-3.3317,-3.3314,-3.3278,-3.3271,-3.3247,-3.3174,-3.3168,0,0,0,-3.3512,-3.349,-3.3472,-3.3442,-3.3414,-3.339,-3.3362,-3.3349,-3.3306,-3.3343,-3.3262,-3.3258,-3.3244,-3.3234,-3.3228,-3.3217,-3.3286,-3.3286,-3.3286,-3.3442,-3.3436,-3.3386,-3.3372,-3.3344,-3.3319,-3.3296,-3.3274,-3.327,-3.3252,-3.3236,-3.3193,-3.3182,-3.3178,-3.3166,-3.3225,-3.3225,-3.3225,-3.3225,-3.3364,-3.3333,-3.3339,-3.3292,-3.3287,-3.3247,-3.3224,-3.3225,-3.3188,-3.3202,-3.319,-3.3206,-3.3171,-3.3161,-3.3224,-3.3224,-3.3224,-3.3224,-3.3224,-3.3317,-3.3302,-3.3291,-3.3252,-3.3223,-3.3211,-3.3178,-3.3173,-3.3167,-3.3155,-3.314,-3.314,-3.314,-3.3148,-3.3148,-3.3148,-3.3148,-3.3148,-3.3148,-3.3274,-3.3261,-3.3235,-3.3208,-3.3192,-3.317,-3.3151,-3.3134,-3.3115,-3.3114,-3.3114,-3.3115,-3.3169,-3.3184,-3.3145,-3.3146,-3.3146,-3.3146,-3.3146,-3.3196,-3.3215,-3.3174,-3.3159,-3.3131,-3.3105,-3.3102,-3.3071,-3.3057,-3.3042,-3.3048,-3.3089,-3.3089,-3.3093,-3.3105,-3.3048,-3.3048,-3.3048,-3.3048,-3.3157,-3.316,-3.312,-3.3097,-3.3074,-3.3069,-3.3026,-3.3013,-3.3001,-3.2993,-3.3001,-3.3017,-3.3021,-3.3019,-3.3025,-3.3036,-3.2963,-3.2963,-3.2963,-3.3111,-3.3112,-3.3075,-3.3068,-3.3048,-3.3031,-3.2991,-3.2965,-3.2956,-3.2959,-3.2988,-3.2991,-3.3016,-3.3024,-3.3025,-3.3034,-3.3053,0,0]}]]